Location: Balaclava NSW 2575, Australia
(34.4510°S, 150.4953°E)
Time: 07:54:48
(UTC+10:00)

ISS - Pass Details

Date: 25 May 2021
Orbit: 417 x 422 km, 51.6° (Epoch: 17 June)

Event Time Altitude Azimuth Distance (km) Brightness Sun altitude
Exits shadow 04:33:02 13° 131° (SE) 1,363 -0.7 -28.1°
Drops below altitude 10° 04:33:27 10° 132° (SE) 1,528 -0.5 -28.0°
Sets 04:35:34 0° 132° (SE) 2,399 0.6 -27.6°
